This is the latest recevied weather packets stored in our database for station/object K7TUS-6. If no packets are shown the sender has not sent any weather packets the latest 10 day(s).
| Time | Temp. | Humidity | Pressure | Rain* | Wind** | Luminosity | Snow |
|---|---|---|---|---|---|---|---|
| 1777690207 | 9.44° C | 6% | 981.9 hPa | - | - | - | - |
| 1777689606 | 10° C | 5% | 981.6 hPa | - | - | - | - |
| 1777689306 | 10° C | 5% | 981.1 hPa | - | - | - | - |
| 1777689005 | 10.56° C | 4% | 980.9 hPa | - | - | - | - |
| 1777688704 | 10° C | 4% | 982.4 hPa | - | - | - | - |
| 1777671907 | 18.33° C | 1% | 982.1 hPa | - | - | - | - |
| 1777670404 | 17.22° C | 4% | 982.2 hPa | - | - | - | - |
| 1777669809 | 17.22° C | 5% | 982.7 hPa | - | - | - | - |
| 1777669208 | 15.56° C | 6% | 982.9 hPa | - | - | - | - |
| 1777665006 | 16.67° C | 6% | 982.4 hPa | - | - | - | - |
| 1777664405 | 16.11° C | 6% | 983 hPa | - | - | - | - |
| 1777659608 | 19.44° C | 5% | 982.2 hPa | - | - | - | - |
| 1777659307 | 18.89° C | 4% | 982.6 hPa | - | - | - | - |
| 1777650908 | 8.33° C | 21% | 980.6 hPa | - | - | - | - |
| 1777650007 | 7.22° C | 20% | 980.3 hPa | - | - | - | - |
| 1777649706 | 7.78° C | 21% | 980.6 hPa | - | - | - | - |
| 1777649405 | 7.78° C | 21% | 980.6 hPa | - | - | - | - |
| 1777649105 | 7.78° C | 21% | 980.6 hPa | - | - | - | - |
| 1777648804 | 7.78° C | 23% | 980.7 hPa | - | - | - | - |
| 1777648503 | 7.78° C | 21% | 979.9 hPa | - | - | - | - |
| 1777647903 | 8.33° C | 21% | 980 hPa | - | - | - | - |
| 1777647308 | 7.78° C | 21% | 978.8 hPa | - | - | - | - |
| 1777646707 | 7.22° C | 23% | 978.6 hPa | - | - | - | - |
| 1777646406 | 6.67° C | 22% | 979.2 hPa | - | - | - | - |
| 1777645805 | 6.67° C | 21% | 980.5 hPa | - | - | - | - |
* Rain since midnight (hover to see other rain measurements)
** Current wind speed in m/s (hover to see current wind gust speed)